Burlington, VT

5:43 AM EST on December 13, 2019 (GMT -0500)
Burlington International

Weather History for KBTV - November, 2019

Change the Weather History Date:

Saturday, November 16, 2019

  Actual Average Record
Temperature  
Mean Temperature 18 °F 38 °F  
Max Temperature 25 °F 45 °F 73 °F (1989)
Min Temperature 11 °F 31 °F 6 °F (1933)
Degree Days  
Heating Degree Days 47 27  
Month to date heating degree days 504 388  
Since 1 July heating degree days 1011 1129  
Cooling Degree Days 0 0  
Month to date cooling degree days 0 0  
Year to date cooling degree days 606 491  
Moisture  
Dew Point 5 °F    
Average Humidity 55    
Maximum Humidity 73    
Minimum Humidity 36    
Precipitation  
Precipitation T in 0.11 in 1.10 in (1926)
Month to date precipitation 1.75 1.74  
Year to date precipitation 40.25 33.05  
Snow  
Snow T in 0.10 in 13.00 in (1906)
Month to date snowfall 10.2 1.7  
Since 1 July snowfall 10.2 2.0  
Since 1 September snowfall 10.2 2.0  
Snow Depth 5.00 in    
Sea Level Pressure  
Sea Level Pressure 30.58 in    
Wind  
Wind Speed 6 mph (NNE)    
Max Wind Speed 23 mph    
Max Gust Speed 29 mph    
Visibility 10 miles    
Events Snow    
T = Trace of Precipitation, MM = Missing Value Source: NWS Daily Summary

Daily Weather History Graph

Daily Weather History Graph

Search for Another Location

Airport or City:

Astronomy

Nov. 16, 2019 Rise Set
Actual Time 6:49 AM EST 4:24 PM EST
Civil Twilight 6:18 AM EST 4:55 PM EST
Nautical Twilight 5:42 AM EST 5:31 PM EST
Astronomical Twilight 5:08 AM EST 6:05 PM EST
Moon 7:50 PM EST (11/16) 10:45 AM EST (11/16)
Length of Visible Light 10h 37m
Length of Day
9h 34m
Waning Gibbous, 82% of the Moon is Illuminated
Nov 16
Waning Gibbous
Nov 19
Last Quarter
Nov 26
New
Dec 4
First Quarter
Dec 12
Full

Hourly Weather History & Observations

Time (EST) Temp. Windchill Dew Point Humidity Pressure Visibility Wind Dir Wind Speed Gust Speed Precip Events Conditions
12:54 AM 21.9 °F 10.4 °F 7.0 °F 53% 30.44 in 10.0 mi North 11.5 mph - N/A   Scattered Clouds
1:54 AM 21.0 °F 9.3 °F 9.0 °F 60% 30.47 in 10.0 mi North 11.5 mph - N/A   Overcast
2:40 AM 19.0 °F 7.5 °F 5.0 °F 54% 30.46 in 10.0 mi North 10.4 mph - 0.00 in   Overcast
2:54 AM 18.0 °F 6.1 °F 5.0 °F 57% 30.48 in 10.0 mi North 10.4 mph - 0.00 in   Overcast
3:54 AM 18.0 °F 6.1 °F 8.1 °F 65% 30.51 in 6.0 mi North 10.4 mph - 0.00 in Snow Light Snow
4:54 AM 16.0 °F 4.4 °F 7.0 °F 68% 30.53 in 10.0 mi North 9.2 mph - 0.00 in   Overcast
5:44 AM 15.1 °F 3.3 °F 6.1 °F 68% 30.54 in 10.0 mi North 9.2 mph - 0.00 in Snow Light Snow
5:54 AM 15.1 °F 6.4 °F 6.1 °F 68% 30.56 in 9.0 mi NNE 5.8 mph - 0.00 in Snow Light Snow
6:07 AM 14.0 °F 5.1 °F 6.1 °F 71% 30.56 in 9.0 mi NE 5.8 mph - 0.00 in   Partly Cloudy
6:54 AM 14.0 °F 6.5 °F 5.0 °F 67% 30.61 in 10.0 mi NE 4.6 mph - 0.00 in   Partly Cloudy
7:54 AM 14.0 °F 3.9 °F 7.0 °F 74% 30.63 in 10.0 mi ENE 6.9 mph - N/A   Partly Cloudy
8:54 AM 15.1 °F 6.4 °F 6.1 °F 68% 30.64 in 10.0 mi East 5.8 mph - N/A   Partly Cloudy
9:54 AM 19.0 °F 12.3 °F 6.1 °F 57% 30.66 in 10.0 mi NNE 4.6 mph - N/A   Partly Cloudy
10:54 AM 21.0 °F 14.6 °F 7.0 °F 55% 30.65 in 10.0 mi NNW 4.6 mph - N/A   Clear
11:54 AM 23.0 °F 13.9 °F 6.1 °F 48% 30.63 in 10.0 mi NNW 8.1 mph - N/A   Clear
12:54 PM 24.1 °F 16.0 °F 5.0 °F 44% 30.62 in 10.0 mi WNW 6.9 mph - N/A   Partly Cloudy
1:54 PM 24.1 °F 17.0 °F 3.9 °F 42% 30.60 in 10.0 mi NW 5.8 mph - N/A   Clear
2:54 PM 24.1 °F 15.2 °F 3.0 °F 40% 30.58 in 10.0 mi North 8.1 mph - N/A   Clear
3:54 PM 23.0 °F 15.8 °F -0.0 °F 37% 30.59 in 10.0 mi North 5.8 mph - N/A   Clear
4:54 PM 19.9 °F 12.1 °F -0.0 °F 42% 30.59 in 10.0 mi NNE 5.8 mph - N/A   Clear
5:54 PM 19.0 °F 12.3 °F 1.9 °F 47% 30.60 in 10.0 mi NE 4.6 mph - N/A   Clear
6:54 PM 18.0 °F 9.8 °F 3.0 °F 52% 30.61 in 10.0 mi North 5.8 mph - N/A   Clear
7:54 PM 17.1 °F 11.7 °F 1.9 °F 52% 30.61 in 10.0 mi NE 3.5 mph - N/A   Clear
8:54 PM 14.0 °F - 3.0 °F 62% 30.61 in 10.0 mi Calm Calm - N/A   Clear
9:54 PM 12.9 °F 6.9 °F 3.0 °F 65% 30.60 in 10.0 mi ESE 3.5 mph - N/A   Clear
10:54 PM 12.0 °F - 5.0 °F 73% 30.58 in 10.0 mi Calm Calm - N/A   Clear
11:54 PM 12.0 °F 1.5 °F 3.9 °F 70% 30.56 in 10.0 mi ENE 6.9 mph - N/A   Clear